User: anonymous   Login
Location: Lawrence Hall of Science
(37.8785°N, 122.2415°W)
Time: 04:58:46
(UTC-07:00)
Language:

ARGOS - Orbit

View from above orbital plane
View from above orbital plane
View from above satellite
View from above satellite

Ground track
Ground track

The orbit data is extracted from the following two-line orbital elements,

1 25634U 99008A   16238.18032539 -.00000039  00000-0  18643-5 0  9997
2 25634  98.6624 302.2776 0009849 347.9973  12.0967 14.19293589906478
Epoch (UTC): 25 August 2016 04:19:40
Eccentricity: 0.0009849
inclination: 98.6624°
perigee height: 820 km
apogee height: 835 km
right ascension of ascending node: 302.2776°
argument of perigee: 347.9973°
revolutions per day: 14.19293589
mean anomaly at epoch: 12.0967°
orbit number at epoch: 90647

The dashed part of the orbit path shows where the satellite is in the earth's shadow,  

DLR